This is the latest recevied weather packets stored in our database for station/object KM4CBK. If no packets are shown the sender has not sent any weather packets the latest 10 day(s).
| Time | Temp. | Humidity | Pressure | Rain* | Wind** | Luminosity | Snow |
|---|---|---|---|---|---|---|---|
| 1777723929 | 12.22° C | 99% | 1012.1 hPa | 0.51 mm | - | 15 W/m² | - |
| 1777723625 | 12.22° C | 99% | 1011.9 hPa | 0.51 mm | - | 26 W/m² | - |
| 1777723322 | 12.22° C | 99% | 1012.1 hPa | 0.51 mm | - | 18 W/m² | - |
| 1777723020 | 12.22° C | 99% | 1011.3 hPa | 0.51 mm | - | 27 W/m² | - |
| 1777722716 | 12.78° C | 99% | 1011.2 hPa | 0 mm | - | 21 W/m² | - |
| 1777722412 | 12.22° C | 99% | 1010.9 hPa | 0 mm | - | 7 W/m² | - |
| 1777722109 | 12.22° C | 99% | 1011 hPa | 0 mm | - | 5 W/m² | - |
| 1777721807 | 12.22° C | 99% | 1011.3 hPa | 0 mm | - | 7 W/m² | - |
| 1777721505 | 12.22° C | 99% | 1011.4 hPa | 0.51 mm | - | 2 W/m² | - |
| 1777721202 | 12.22° C | 99% | 1011.4 hPa | 0.51 mm | - | 5 W/m² | - |
| 1777720900 | 12.78° C | 99% | 1011.3 hPa | 0 mm | - | 1 W/m² | - |
| 1777720597 | 12.22° C | 99% | 1011.5 hPa | 0 mm | - | 0 W/m² | - |
| 1777720294 | 12.22° C | 99% | 1011.4 hPa | 0 mm | - | 1 W/m² | - |
| 1777719992 | 12.22° C | 99% | 1012 hPa | 0.51 mm | - | 0 W/m² | - |
| 1777719689 | 12.22° C | 99% | 1011.6 hPa | 0.51 mm | - | 0 W/m² | - |
| 1777719386 | 12.22° C | 99% | 1011.1 hPa | 0 mm | - | 0 W/m² | - |
| 1777719084 | 12.22° C | 99% | 1010.5 hPa | 0 mm | - | 0 W/m² | - |
| 1777718781 | 12.22° C | 99% | 1010.1 hPa | 0 mm | - | 0 W/m² | - |
| 1777718478 | 12.22° C | 99% | 1010.5 hPa | 0.51 mm | - | 0 W/m² | - |
| 1777718175 | 12.22° C | 99% | 1011.1 hPa | 0 mm | - | 0 W/m² | - |
| 1777717874 | 12.22° C | 99% | 1011.4 hPa | 0 mm | - | 0 W/m² | - |
| 1777717570 | 12.22° C | 99% | 1011.9 hPa | 0 mm | - | 0 W/m² | - |
| 1777717267 | 12.22° C | 99% | 1011.9 hPa | 0.51 mm | - | 0 W/m² | - |
| 1777716965 | 12.22° C | 99% | 1011.3 hPa | 1.78 mm | - | 0 W/m² | - |
| 1777716663 | 12.22° C | 99% | 1011.2 hPa | 1.78 mm | - | 0 W/m² | - |
* Rain latest hour (hover to see other rain measurements)
** Current wind speed in m/s (hover to see current wind gust speed)